Hourly Data Report for October 22, 2016

All times are specified in Local Standard Time (LST). Add 1 hour to adjust for Daylight Saving Time where and when it is observed.

HALL BEACH A
NUNAVUT

68°46'33.000" N
81°14'33.000" W
9.10 m
2402354
71293
YUX

Related Data

No related data is available for this station

Download Data

Hourly Data (October 2016)
Hourly Data Report for October 22, 2016
Temp Definition
°C
Dew Point Temp Definition
°C
Rel Hum Definition
%
Wind Dir Definition
10's deg

Wind Spd Definition
km/h
Visibility Definition
km
Stn Press Definition
kPa
Hmdx Definition


Wind Chill Definition


Weather Definition


TIME
00:00 Legend Double Dagger -17.4 -19.5 84 31 30 16.1 102.17   -29 LegendNANA
01:00 Legend Double Dagger -16.8 -18.8 85 31 26 16.1 102.24   -28 LegendNANA
02:00 Legend Double Dagger -16.6 -18.5 86 31 28 16.1 102.32   -28 LegendNANA
03:00 Legend Double Dagger -16.5 -18.2 87 32 26 16.1 102.37   -27 LegendNANA
04:00 Legend Double Dagger -16.8 -18.8 85 31 26 16.1 102.45   -28 LegendNANA
05:00 Legend Double Dagger -15.6 -17.4 86 32 24 16.1 102.51   -26 LegendNANA
06:00 Legend Double Dagger -15.6 -17.4 86 31 22 16.1 102.59   -25 LegendNANA
07:00 Legend Double Dagger -14.6 -16.2 88 31 21 16.1 102.64   -24 LegendNANA
08:00 Legend Double Dagger -15.0 -16.8 86 31 24 16.1 102.67   -25 LegendNANA
09:00 Legend Double Dagger -15.5 -17.3 86 32 22 16.1 102.73   -25 LegendNANA
10:00 Legend Double Dagger -15.1 -16.8 87 31 26 16.1 102.79   -25 LegendNANA
11:00 Legend Double Dagger -14.3 -15.8 89 31 21 16.1 102.85   -24 LegendNANA
12:00 Legend Double Dagger -14.3 -15.7 89 30 18 16.1 102.91   -23 LegendNANA
13:00 Legend Double Dagger -14.5 -16.2 87 31 21 16.1 102.96   -24 LegendNANA
14:00 Legend Double Dagger -15.0 -16.8 86 32 18 16.1 103.02   -24 LegendNANA
15:00 Legend Double Dagger -15.8 -17.8 85 31 18 16.1 103.08   -25 LegendNANA
16:00 Legend Double Dagger -16.6 -18.1 88 32 21 16.1 103.12   -26 LegendNANA
17:00 Legend Double Dagger -17.3 -19.1 86 32 22 16.1 103.16   -28 LegendNANA
18:00 Legend Double Dagger -17.8 -19.7 85 30 17 16.1 103.22   -27 LegendNANA
19:00 Legend Double Dagger -17.7 -19.6 85 30 22 16.1 103.23   -28 LegendNANA
20:00 Legend Double Dagger -18.1 -20.2 84 32 22 16.1 103.25   -29 LegendNANA
21:00 Legend Double Dagger -18.5 -20.6 84 31 22 16.1 103.27   -29 LegendNANA
22:00 Legend Double Dagger -18.8 -20.9 84 31 21 16.1 103.30   -29 LegendNANA
23:00 Legend Double Dagger -18.9 -21.0 84 31 21 16.1 103.33   -29 LegendNANA

Notes on Data Quality.

Legend

  • E = Estimated
  • M = Missing
  • NA = Not Available
  • ‡ = Partner data that is not subject to review by the National Climate Archives
Date modified: